Tracking 31027 objects as of 19-Jul-2025
HD Live streaming from Space Station
objects crossing your sky now

STARLINK-31840

Track STARLINK-31840 now!
10-day predictions
STARLINK-31840 is classified as:


NORAD ID: 60127
Int'l Code: 2024-118Q
Perigee: 481.5 km
Apogee: 483.2 km
Inclination: 53.2 °
Period: 94.1 minutes
Semi major axis: 6853 km
RCS: Unknown
Launch date: June 24, 2024
Source: United States (US)
Launch site: AIR FORCE WESTERN TEST RANGE (AFWTR)
Your satellite tracking list
SL-8 DEB
Track 1 satellite(s)




NASA's NSSDC Master Catalog

Two Line Element Set (TLE):
1 60127U 24118Q   25198.54216920 -.00000560  00000-0 -67887-5 0  9990
2 60127  53.1612  39.0006 0001246  97.0882 263.0260 15.30190062 60733
Source of the keplerian elements: AFSPC